[[{"header":{"parameterUnit":"m.s-1","parameterCategory":1,"la1":30.2991,"la2":30.254,"lo1":-89.0895,"lo2":-89.0444,"dy":0.0017,"dx":0.0017,"nx":28,"ny":28,"refTime":"2026-02-15T03:00:00:Z","depth":0,"parameterNumber":2,"parameterNumberName":"U-component_of_WINDS"},"data":[0,0,0,0,0,0,0,0,0,0,0,0,0,0,0,0,0,0,0,0,0,0,0,0,0,0,0,0,0,0,0,0,0,0,0,0,0,0,0,0,0,0,0,0,0,0,0,0,0,0,0,0,0,0,0,0,0,0,5.955,5.9551,0,5.9641,5.9642,5.9643,5.9625,5.9623,5.9621,5.962,5.9717,5.9721,5.9725,0,0,0,0,0,0,0,0,0,0,0,0,0,5.9364,5.9368,5.9549,5.9551,5.9552,5.9641,5.9642,5.9643,5.9625,5.9623,5.9621,5.9619,5.9715,5.972,5.9725,0,0,0,0,0,0,0,0,0,0,0,0,0,5.9449,5.9369,5.9549,5.9553,5.9554,5.9641,5.9642,5.9644,5.9625,5.9623,5.962,5.9618,5.9714,5.972,5.9726,5.9815,0,0,5.9745,5.9748,0,0,0,0,0,0,0,0,5.9444,5.9456,5.9551,5.9553,5.9555,5.9619,5.9612,5.9701,5.9626,5.9598,5.9619,5.9617,5.9686,5.9695,5.9717,5.9819,5.9824,5.9745,5.9749,5.9752,5.9754,0,0,0,0,0,0,0,5.9438,5.9452,5.9586,5.9553,5.9555,5.9552,5.9561,5.9629,5.9656,5.9601,5.9599,5.961,5.9687,5.9711,5.972,5.9825,5.9745,5.9751,5.9755,5.9757,6.0009,6.0012,0,0,0,0,0,0,5.9431,5.9447,5.9583,5.9588,5.9492,5.9558,5.9568,5.9601,5.9655,5.966,5.9612,5.9609,5.9702,5.9712,5.9723,5.9833,5.9752,5.9758,5.9761,6.0006,6.0009,6.0013,0,0,0,0,0,0,5.9427,5.9443,5.9579,5.9518,5.9535,5.9563,5.96,5.9604,5.9628,5.9664,5.9669,5.9632,5.97,5.9714,5.9793,5.9836,5.976,5.9766,6.0002,6.0007,6.0011,6.0051,0,0,0,0,0,0,5.9421,5.9441,5.9474,5.9518,5.9538,5.9646,5.9603,5.9607,5.9639,5.9635,5.9684,5.9689,5.97,5.9784,5.9799,5.9843,5.9771,5.9999,6.0004,6.001,6.0046,6.0057,6.0065,0,0,0,0,0,5.9415,5.9482,5.9476,5.9492,5.9579,5.9648,5.9659,5.9669,5.9642,5.9676,5.97,5.9688,5.9829,5.9792,5.9809,5.9855,5.9996,6.0003,6.0009,6.0042,6.0055,6.0065,0,0,0,0,0,0,5.9441,5.9487,5.9481,5.9564,5.9602,5.9645,5.9687,5.9681,5.9728,5.9723,5.9734,5.9746,5.9826,5.9849,5.9807,5.9946,5.9909,5.9919,5.9928,5.994,5.995,5.9942,5.9776,0,0,0,0,0,5.9457,5.9508,5.9546,5.9615,5.9635,5.9658,5.9689,5.9693,5.9733,5.9749,5.9778,5.9819,5.9873,5.9908,5.9959,6.005,6.0062,6.0091,6.0101,6.0108,6.0117,6.017,6.0184,6.0034,6.0034,6.0034,0,0,5.9489,5.9521,5.9552,5.9622,5.9652,5.9706,5.9672,5.973,5.9771,5.9759,5.9834,5.9858,5.9905,5.999,6.003,6.0012,6.0161,6.0117,6.0123,6.0127,6.0178,6.0192,6.0205,6.0039,6.0038,6.0037,0,0,5.9576,5.9604,5.9666,5.9698,5.9744,5.976,5.9775,5.982,5.9834,5.9911,5.9904,5.9954,6.0045,6.008,6.0109,6.0214,6.0206,6.0231,6.028,6.0332,6.0343,6.0354,6.0393,6.0406,6.024,6.024,6.024,0,5.961,5.969,5.9699,5.9759,5.9791,5.9783,5.9848,5.9878,5.9939,5.9963,5.9942,6.0059,6.009,6.0185,6.0211,6.0234,6.0254,6.0225,6.0341,6.0351,6.0361,6.0399,6.0413,6.0243,6.0242,6.0242,6.0242,0,5.9732,5.9788,5.9833,5.9892,5.9929,5.9991,6.0012,6.0049,6.0051,6.007,6.015,6.0188,6.0247,6.0271,6.0273,6.0367,6.0355,6.0338,6.03,6.0378,6.0413,6.0428,6.0246,6.0245,6.0245,6.0244,0,0,5.9834,5.99,5.9917,5.9945,5.9997,6.0042,6.0105,6.0164,6.0196,6.024,6.0295,6.0374,6.036,6.0393,6.04,6.0445,6.0528,6.0423,6.0424,6.0442,6.0637,6.065,6.0666,6.0524,6.0527,6.0529,6.0633,0,5.9927,6.0036,6.0048,6.0147,6.0201,6.0196,6.0252,6.0291,6.0312,6.0362,6.0385,6.0442,6.0417,6.0438,6.0482,6.0509,6.0568,6.0501,6.0577,6.0579,6.0564,6.0684,6.0697,6.0793,6.0647,6.0649,6.0651,0,6.0048,6.0095,6.0199,6.0247,6.027,6.032,6.0376,6.0423,6.047,6.0482,6.0521,6.0523,6.0592,6.0553,6.0648,6.0603,6.0635,6.0653,6.0657,6.0664,6.0619,6.0694,6.0824,6.0839,6.0673,6.0671,6.0669,0,6.0114,6.0204,6.0279,6.0303,6.036,6.0396,6.0422,6.0465,6.0501,6.0551,6.0575,6.0632,6.0664,6.071,6.0729,6.0698,6.0824,6.0786,6.0837,6.0837,6.0863,6.0861,6.1,6.0884,6.0884,6.0884,6.0883,0,6.0215,6.0279,6.0309,6.0355,6.0428,6.0443,6.0516,6.0541,6.058,6.0633,6.0633,6.0683,6.0705,6.0759,6.0774,6.0852,6.0867,6.088,6.0883,6.0879,6.0878,6.09,6.0894,6.0887,6.0887,6.0886,6.0885,0,6.03,6.0322,6.0404,6.0453,6.0467,6.0519,6.0561,6.0607,6.0628,6.0695,6.0712,6.0746,6.0809,6.0833,6.0911,6.0922,6.1012,6.101,6.0996,6.0997,6.1047,6.1043,6.1205,6.1228,6.1097,6.1098,6.1099,0,6.0363,6.0412,6.0467,6.0502,6.0529,6.0585,6.0622,6.064,6.0678,6.0737,6.0777,6.084,6.0892,6.0995,6.1027,6.1088,6.1087,6.1141,6.1096,6.1092,6.1089,6.1086,6.1092,6.1148,6.1149,6.1151,6.1151,0,6.0472,6.0482,6.0534,6.0591,6.0635,6.0681,6.0726,6.0755,6.078,6.0824,6.0889,6.0929,6.101,6.1074,6.1137,6.1166,6.1164,6.1166,6.1181,6.1177,6.1167,6.1174,6.1019,6.1161,6.116,6.116,6.1159,6.1159,6.0549,6.0593,6.064,6.0699,6.0735,6.0777,6.0823,6.0851,6.0906,6.0972,6.098,6.1051,6.11,6.1184,6.1216,6.1273,6.1259,6.1281,6.1286,6.1292,6.1295,6.1159,6.1285,6.1285,6.1284,6.1284,6.1284,0,6.0659,6.0689,6.0743,6.0807,6.0854,6.0848,6.0898,6.0939,6.1,6.1046,6.1097,6.1174,6.1237,6.1276,6.134,6.1379,6.138,6.1395,6.1392,6.1399,6.1304,6.1284,6.1393,6.1393,6.1393,6.1393,6.1393,6.1393,6.0722,6.0798,6.0814,6.0909,6.0939,6.1008,6.1037,6.1078,6.1114,6.12,6.1252,6.1277,6.1321,6.1388,6.1447,6.1457,6.1481,6.1498,6.1507,6.1417,6.1405,6.1395,6.1377,6.1503,6.1503,6.1597,6.1598,6.1599]},{"header":{"parameterUnit":"m.s-1","parameterCategory":1,"la1":30.2991,"la2":30.254,"lo1":-89.0895,"lo2":-89.0444,"dy":0.0017,"dx":0.0017,"nx":28,"ny":28,"refTime":"2026-02-15T03:00:00:Z","depth":0,"parameterNumber":3,"parameterNumberName":"V-component_of_WINDS"},"data":[0,0,0,0,0,0,0,0,0,0,0,0,0,0,0,0,0,0,0,0,0,0,0,0,0,0,0,0,0,0,0,0,0,0,0,0,0,0,0,0,0,0,0,0,0,0,0,0,0,0,0,0,0,0,0,0,0,0,3.4464,3.4466,0,3.466,3.4662,3.4664,3.4719,3.4718,3.4717,3.4716,3.4924,3.493,3.4937,0,0,0,0,0,0,0,0,0,0,0,0,0,3.4144,3.4149,3.4463,3.4466,3.4468,3.4659,3.4662,3.4665,3.4719,3.4718,3.4716,3.4715,3.4922,3.493,3.4938,0,0,0,0,0,0,0,0,0,0,0,0,0,3.4306,3.4151,3.4463,3.4518,3.4525,3.4659,3.4662,3.4666,3.4719,3.4718,3.4716,3.4714,3.4919,3.4929,3.4939,3.5034,0,0,3.4969,3.4973,0,0,0,0,0,0,0,0,3.4297,3.4318,3.4508,3.4515,3.4523,3.4663,3.4626,3.4789,3.472,3.4646,3.4716,3.4714,3.4839,3.4855,3.4896,3.5044,3.5053,3.497,3.4976,3.498,3.4983,0,0,0,0,0,0,0,3.4285,3.4309,3.4541,3.451,3.452,3.4536,3.4557,3.4657,3.475,3.4652,3.4657,3.4679,3.4843,3.4887,3.4902,3.5056,3.497,3.4978,3.4985,3.4988,3.5295,3.5297,0,0,0,0,0,0,3.4263,3.43,3.4535,3.4547,3.4403,3.4543,3.4567,3.462,3.4749,3.4767,3.468,3.468,3.487,3.489,3.4909,3.5031,3.498,3.4989,3.4995,3.5293,3.5296,3.5298,0,0,0,0,0,0,3.4256,3.4284,3.4527,3.4425,3.4457,3.455,3.461,3.4625,3.4668,3.477,3.4787,3.4707,3.487,3.4895,3.5003,3.5039,3.4994,3.5003,3.529,3.5294,3.5297,3.5275,0,0,0,0,0,0,3.4247,3.4281,3.4316,3.4425,3.4462,3.4615,3.4612,3.463,3.4684,3.4687,3.48,3.4817,3.4871,3.4988,3.5013,3.5052,3.5011,3.5288,3.5292,3.5296,3.5273,3.5277,3.528,0,0,0,0,0,3.4235,3.4303,3.4317,3.4345,3.4507,3.4616,3.4638,3.4696,3.4687,3.4724,3.479,3.4813,3.5031,3.4998,3.5027,3.507,3.5286,3.5291,3.5295,3.5271,3.5276,3.528,0,0,0,0,0,0,3.4197,3.4318,3.4335,3.444,3.4517,3.4625,3.4674,3.4699,3.4783,3.4782,3.4853,3.4879,3.4982,3.5037,3.4998,3.5171,3.5159,3.517,3.5131,3.5136,3.514,3.5126,3.5019,0,0,0,0,0,3.42,3.4277,3.4379,3.4461,3.4499,3.458,3.463,3.4668,3.4752,3.4786,3.4859,3.4942,3.503,3.5086,3.5172,3.5281,3.5308,3.5325,3.5329,3.5331,3.5341,3.5405,3.5415,3.5314,3.5314,3.5314,0,0,3.4209,3.4284,3.4328,3.4456,3.452,3.4601,3.4607,3.4691,3.4752,3.48,3.4905,3.4962,3.506,3.5169,3.5221,3.5218,3.5374,3.5338,3.5339,3.5347,3.5411,3.5421,3.5429,3.5318,3.5317,3.5316,0,0,3.4265,3.4329,3.4405,3.447,3.4567,3.4621,3.4639,3.4745,3.4784,3.4891,3.4928,3.5004,3.5152,3.5221,3.5275,3.5361,3.5386,3.5387,3.5408,3.547,3.5478,3.5485,3.5518,3.5529,3.5395,3.5395,3.5395,0,3.4264,3.4384,3.4442,3.4525,3.4581,3.4626,3.4706,3.4767,3.4888,3.4927,3.4921,3.511,3.5179,3.5306,3.5327,3.5369,3.5395,3.5374,3.5472,3.548,3.5488,3.552,3.5532,3.5395,3.5395,3.5395,3.5395,0,3.4379,3.4462,3.4512,3.4627,3.4689,3.477,3.4843,3.49,3.4933,3.4988,3.5099,3.5183,3.5288,3.5321,3.5355,3.5454,3.545,3.5457,3.5447,3.5496,3.5527,3.554,3.5394,3.5394,3.5394,3.5395,0,0,3.4416,3.4562,3.458,3.4634,3.4745,3.4812,3.4897,3.4997,3.5046,3.5129,3.5203,3.5329,3.5337,3.5399,3.5441,3.5496,3.5561,3.5497,3.5501,3.5508,3.5679,3.5674,3.5687,3.5578,3.5581,3.5583,3.5672,0,3.4488,3.4638,3.4694,3.4818,3.4897,3.4942,3.5016,3.5095,3.5149,3.5227,3.5288,3.5376,3.5379,3.5417,3.5473,3.5541,3.5597,3.5535,3.5652,3.5655,3.5627,3.5703,3.5697,3.5777,3.5684,3.5686,3.5688,0,3.4591,3.4674,3.4805,3.4909,3.4945,3.501,3.5108,3.5181,3.5272,3.5308,3.5378,3.5417,3.5511,3.5495,3.5627,3.5584,3.5636,3.5677,3.5681,3.5696,3.5675,3.5721,3.5804,3.5816,3.5707,3.5706,3.5705,0,3.4607,3.4752,3.485,3.4894,3.5017,3.5063,3.5117,3.5206,3.5264,3.5351,3.539,3.5487,3.5541,3.5617,3.5684,3.5665,3.5811,3.5799,3.5847,3.5845,3.5876,3.5873,3.5969,3.5906,3.5906,3.5906,3.5906,0,3.4682,3.4762,3.4859,3.4919,3.5011,3.5076,3.5166,3.5223,3.5303,3.5378,3.5423,3.5493,3.5575,3.5657,3.5709,3.5813,3.5836,3.5871,3.5884,3.5867,3.5863,3.5903,3.59,3.5909,3.5908,3.5908,3.5907,0,3.4716,3.4784,3.4894,3.5002,3.5031,3.5094,3.5188,3.525,3.5307,3.5402,3.5428,3.5518,3.5617,3.569,3.5818,3.5854,3.5965,3.5978,3.5933,3.594,3.5984,3.5979,3.611,3.6132,3.6052,3.6052,3.6053,0,3.476,3.4822,3.4936,3.4989,3.5042,3.5126,3.5185,3.5253,3.5314,3.5424,3.5473,3.5575,3.5659,3.5816,3.5895,3.5994,3.6011,3.605,3.6026,3.6008,3.6014,3.601,3.6018,3.6053,3.6054,3.6054,3.6055,0,3.4831,3.4862,3.4944,3.5039,3.5108,3.5187,3.5266,3.5307,3.5391,3.5457,3.5557,3.5623,3.5753,3.5855,3.5962,3.6022,3.6054,3.6061,3.6078,3.6062,3.6035,3.6052,3.5944,3.6058,3.6058,3.6058,3.6057,3.6057,3.4873,3.4931,3.5021,3.5112,3.5179,3.5253,3.5317,3.5382,3.5466,3.5576,3.5612,3.5717,3.5811,3.5957,3.6018,3.6103,3.6103,3.6126,3.6133,3.6138,3.6138,3.602,3.6123,3.6123,3.6123,3.6123,3.6123,0,3.4948,3.5008,3.5091,3.5201,3.5274,3.5295,3.5385,3.5445,3.5536,3.5619,3.5701,3.5819,3.5918,3.6005,3.6109,3.616,3.6178,3.6186,3.6183,3.6197,3.6131,3.6107,3.617,3.617,3.617,3.617,3.617,3.617,3.4996,3.5096,3.5138,3.5273,3.5334,3.5435,3.5485,3.5555,3.5622,3.575,3.5832,3.5887,3.5974,3.6085,3.6178,3.6201,3.6239,3.6243,3.627,3.6207,3.6202,3.6196,3.6174,3.625,3.625,3.633,3.6331,3.6331]}]]